Location: Cosy Dell
(34.2789°N, 117.4537°W)
Time: 11:10:40
(UTC+00:00)

CZ-3A R/B - Pass Details

Date: 14 July 2020
Orbit: 140 x 9535 km, 24.2° (Epoch: 09 August)

Event Time Altitude Azimuth Distance (km) Brightness Sun altitude
Rises 03:52:54 0° 233° (SW) 10,007 7.9 -9.7°
Reaches altitude 10° 04:04:37 10° 223° (SW) 6,699 6.9 -11.7°
Maximum altitude 04:16:30 22° 182° (S) 3,083 4.8 -13.6°
Enters shadow 04:19:57 17° 149° (SSE) 2,585 4.1 -14.2°
